TimeEDT,TemperatureF,Dew PointF,Humidity,Sea Level PressureIn,VisibilityMPH,Wind Direction,Wind SpeedMPH,Gust SpeedMPH,PrecipitationIn,Events,Conditions,WindDirDegrees,DateUTC
12:53 AM,60.1,54.0,80,30.20,10.0,Calm,Calm,-,N/A,,Clear,0,2013-05-26 04:53:00
1:53 AM,57.9,53.1,84,30.19,10.0,Calm,Calm,-,N/A,,Clear,0,2013-05-26 05:53:00
2:53 AM,57.9,53.1,84,30.19,10.0,Calm,Calm,-,N/A,,Clear,0,2013-05-26 06:53:00
3:53 AM,57.9,53.1,84,30.19,10.0,North,3.5,-,N/A,,Partly Cloudy,10,2013-05-26 07:53:00
4:53 AM,55.0,52.0,89,30.21,10.0,Calm,Calm,-,N/A,,Clear,0,2013-05-26 08:53:00
5:53 AM,55.0,51.1,86,30.23,10.0,Calm,Calm,-,N/A,,Scattered Clouds,0,2013-05-26 09:53:00
6:53 AM,55.0,51.1,86,30.26,10.0,Calm,Calm,-,N/A,,Mostly Cloudy,0,2013-05-26 10:53:00
7:53 AM,57.9,52.0,81,30.27,10.0,Calm,Calm,-,N/A,,Scattered Clouds,0,2013-05-26 11:53:00
8:53 AM,63.0,53.1,70,30.26,10.0,Calm,Calm,-,N/A,,Scattered Clouds,0,2013-05-26 12:53:00
9:53 AM,66.9,51.1,57,30.27,10.0,NNE,4.6,-,N/A,,Scattered Clouds,20,2013-05-26 13:53:00
10:53 AM,70.0,50.0,49,30.27,10.0,NNE,5.8,-,N/A,,Scattered Clouds,20,2013-05-26 14:53:00
11:53 AM,72.0,53.1,51,30.27,10.0,North,6.9,-,N/A,,Scattered Clouds,350,2013-05-26 15:53:00
12:53 PM,75.0,52.0,44,30.26,10.0,Calm,Calm,-,N/A,,Scattered Clouds,0,2013-05-26 16:53:00
1:53 PM,77.0,53.1,43,30.24,10.0,North,4.6,-,N/A,,Mostly Cloudy,350,2013-05-26 17:53:00
2:53 PM,79.0,46.9,32,30.22,10.0,Calm,Calm,-,N/A,,Scattered Clouds,0,2013-05-26 18:53:00
3:53 PM,80.1,51.1,36,30.20,10.0,Calm,Calm,-,N/A,,Mostly Cloudy,0,2013-05-26 19:53:00
4:53 PM,82.0,51.1,34,30.17,10.0,North,3.5,-,N/A,,Scattered Clouds,350,2013-05-26 20:53:00
5:53 PM,81.0,50.0,34,30.17,10.0,Calm,Calm,-,N/A,,Scattered Clouds,0,2013-05-26 21:53:00
6:53 PM,81.0,51.1,35,30.15,10.0,Calm,Calm,-,N/A,,Mostly Cloudy,0,2013-05-26 22:53:00
7:53 PM,79.0,53.1,40,30.15,10.0,ESE,4.6,-,N/A,,Mostly Cloudy,120,2013-05-26 23:53:00
8:53 PM,75.9,53.1,45,30.15,10.0,ESE,3.5,-,N/A,,Mostly Cloudy,110,2013-05-27 00:53:00
9:53 PM,70.0,57.9,65,30.17,10.0,Calm,Calm,-,N/A,,Mostly Cloudy,0,2013-05-27 01:53:00
10:53 PM,66.9,57.9,73,30.18,10.0,Calm,Calm,-,N/A,,Mostly Cloudy,0,2013-05-27 02:53:00
11:53 PM,64.9,57.9,78,30.19,10.0,Calm,Calm,-,N/A,,Scattered Clouds,0,2013-05-27 03:53:00